K5NCO Weather Reports


time (UTC)temp
C
wind
direction
speed
KPH
gust
KPH
rain 1hr
cm
rain 24hr
cm
rain mn
cm
humidity
%
barometer
mb
20260903092151 27 139 19.3 24.1 0.00 0.00 0.00 86 1015.0
20260903091650 27 140 8.0 9.7 0.00 0.00 0.00 86 1014.8
20260903091144 27 196 12.9 16.1 0.00 0.00 0.00 86 1015.0
20260903090640 27 182 12.9 16.1 0.00 0.00 0.00 85 1014.8
20260903090139 27 174 12.9 17.7 0.00 0.00 0.00 85 1014.9
20260903085638 27 175 14.5 20.9 0.00 0.00 0.00 85 1014.9
20260903085134 27 204 8.0 11.3 0.00 0.00 0.00 85 1015.0
20260903084631 27 206 9.7 11.3 0.00 0.00 0.00 85 1014.9
20260903084126 27 159 9.7 11.3 0.00 0.00 0.00 85 1014.8
20260903083621 27 212 9.7 12.9 0.00 0.00 0.00 85 1015.2
20260903083116 27 180 6.4 6.4 0.00 0.00 0.00 84 1015.0
20260903082610 27 182 14.5 17.7 0.00 0.00 0.00 85 1014.9
20260903082106 27 174 9.7 12.9 0.00 0.00 0.00 85 1015.0
20260903081601 27 198 16.1 20.9 0.00 0.00 0.00 85 1015.1
20260903081057 27 113 9.7 14.5 0.00 0.00 0.00 84 1014.9
20260903080553 27 177 14.5 17.7 0.00 0.00 0.00 84 1014.9
20260903080049 27 157 3.2 3.2 0.00 0.00 0.00 84 1015.0
20260903075544 27 121 3.2 6.4 0.00 0.00 0.00 84 1015.0
20260903075040 27 92 11.3 12.9 0.00 0.00 0.00 84 1014.9
20260903074538 27 140 9.7 14.5 0.00 0.00 0.00 84 1014.9
20260903074033 27 135 16.1 20.9 0.00 0.00 0.00 83 1014.9
20260903073529 27 158 11.3 16.1 0.00 0.00 0.00 83 1015.0
20260903073025 27 184 19.3 24.1 0.00 0.00 0.00 83 1015.1
20260903072520 27 218 4.8 6.4 0.00 0.00 0.00 82 1015.3
20260903072016 27 186 14.5 20.9 0.00 0.00 0.00 82 1015.1
20260903071512 27 193 11.3 14.5 0.00 0.00 0.00 81 1015.1
20260903071007 27 182 16.1 20.9 0.00 0.00 0.00 81 1015.1
20260903070507 27 143 14.5 16.1 0.00 0.00 0.00 80 1015.2
20260903070003 27 197 9.7 12.9 0.00 0.00 0.00 80 1015.2
20260903065457 27 143 8.0 11.3 0.00 0.00 0.00 79 1015.2
20260903064956 27 153 6.4 9.7 0.00 0.00 0.00 79 1015.2
20260903064450 27 128 14.5 14.5 0.00 0.00 0.00 79 1015.2
20260903063947 27 117 9.7 12.9 0.00 0.00 0.00 79 1015.2
20260903063442 27 142 4.8 4.8 0.00 0.00 0.00 79 1015.3
20260903062937 27 185 8.0 14.5 0.00 0.00 0.00 79 1015.3
20260903062436 27 158 3.2 3.2 0.00 0.00 0.00 80 1015.3
20260903061932 27 112 8.0 11.3 0.00 0.00 0.00 80 1015.3
20260903061432 27 141 6.4 6.4 0.00 0.00 0.00 80 1015.4
20260903060927 27 120 9.7 11.3 0.00 0.00 0.00 80 1015.4
20260903060422 27 160 3.2 4.8 0.00 0.00 0.00 81 1015.3
20260903055921 27 191 8.0 11.3 0.00 0.00 0.00 81 1015.4
20260903055419 27 124 6.4 6.4 0.00 0.00 0.00 81 1015.4
20260903054914 27 72 1.6 4.8 0.00 0.00 0.00 81 1015.5
20260903054414 27 149 11.3 14.5 0.00 0.00 0.00 81 1015.4
20260903053910 27 157 14.5 16.1 0.00 0.00 0.00 81 1015.1
20260903053410 27 106 4.8 6.4 0.00 0.00 0.00 81 1015.1
20260903052907 27 116 3.2 3.2 0.00 0.00 0.00 81 1015.3
20260903052402 27 130 8.0 11.3 0.00 0.00 0.00 81 1015.4
20260903051857 26 115 3.2 3.2 0.00 0.00 0.00 81 1015.1
20260903051352 26 135 1.6 1.6 0.00 0.00 0.00 81 1015.4
20260903050848 26 105 4.8 6.4 0.00 0.00 0.00 81 1015.5
20260903050347 26 83 6.4 6.4 0.00 0.00 0.00 81 1015.3
20260903045842 26 168 3.2 4.8 0.00 0.00 0.00 81 1015.3
20260903045338 26 116 9.7 11.3 0.00 0.00 0.00 81 1015.2
20260903044834 26 93 3.2 6.4 0.00 0.00 0.00 81 1015.3
20260903044329 26 132 4.8 4.8 0.00 0.00 0.00 81 1015.1
20260903043825 26 129 6.4 9.7 0.00 0.00 0.00 81 1015.1
20260903043320 26 92 9.7 12.9 0.00 0.00 0.00 81 1015.2
20260903042819 26 143 4.8 4.8 0.00 0.00 0.00 80 1015.2
20260903042315 26 79 6.4 11.3 0.00 0.00 0.00 80 1015.2
20260903041811 27 143 8.0 11.3 0.00 0.00 0.00 80 1015.2
20260903041307 27 105 4.8 6.4 0.00 0.00 0.00 79 1015.3
20260903040807 27 96 8.0 9.7 0.00 0.00 0.00 79 1015.2
20260903040306 27 94 3.2 4.8 0.00 0.00 0.00 78 1015.3
20260903035803 27 21 1.6 3.2 0.00 0.00 0.00 77 1015.0
20260903035257 27 99 11.3 12.9 0.00 0.00 0.00 76 1015.2
20260903034753 27 96 9.7 12.9 0.00 0.00 0.00 76 1015.2
20260903034248 27 107 12.9 16.1 0.00 0.00 0.00 74 1015.3
20260903033743 27 76 9.7 14.5 0.00 0.00 0.00 74 1015.3
20260903033238 28 76 8.0 12.9 0.00 0.00 0.00 72 1015.5
20260903032732 28 76 4.8 9.7 0.00 0.00 0.00 67 1015.4
20260903032228 29 88 8.0 9.7 0.00 0.00 0.00 66 1015.2
20260903031723 29 81 19.3 22.5 0.00 0.00 0.00 66 1015.1
20260903031217 29 101 11.3 16.1 0.00 0.00 0.00 65 1015.0
20260903030714 30 96 3.2 4.8 0.00 0.00 0.00 64 1015.0
20260903030209 30 90 9.7 12.9 0.00 0.00 0.00 62 1014.8
20260903025704 30 85 9.7 12.9 0.00 0.00 0.00 62 1014.5
20260903025200 30 53 8.0 14.5 0.00 0.00 0.00 60 1014.7
20260903024654 30 77 12.9 14.5 0.00 0.00 0.00 58 1014.4
20260903024153 31 81 8.0 11.3 0.00 0.00 0.00 58 1014.1
20260903023649 31 58 9.7 11.3 0.00 0.00 0.00 57 1014.1
20260903023143 31 78 1.6 1.6 0.00 0.00 0.00 57 1013.9
20260903022638 31 73 8.0 9.7 0.00 0.00 0.00 56 1013.6
20260903022137 31 128 4.8 4.8 0.00 0.00 0.00 56 1013.8
20260903021637 31 96 3.2 3.2 0.00 0.00 0.00 56 1013.7
20260903021132 31 39 1.6 1.6 0.00 0.00 0.00 57 1013.6
20260903020627 31 26 1.6 1.6 0.00 0.00 0.00 56 1013.5
20260903020121 31 32 1.6 3.2 0.00 0.00 0.00 56 1013.2
20260903015618 31 84 1.6 3.2 0.00 0.00 0.00 55 1012.9
20260903015112 31 85 1.6 3.2 0.00 0.00 0.00 55 1013.1
20260903014606 31 87 8.0 9.7 0.00 0.00 0.00 55 1013.1
20260903014101 31 111 8.0 9.7 0.00 0.00 0.00 55 1013.1
20260903013601 32 43 3.2 3.2 0.00 0.00 0.00 55 1012.9
20260903013055 32 46 4.8 9.7 0.00 0.00 0.00 55 1012.9
20260903012554 32 114 6.4 9.7 0.00 0.00 0.00 55 1013.0
20260903012049 32 103 3.2 4.8 0.00 0.00 0.00 55 1012.9
20260903011548 32 85 1.6 3.2 0.00 0.00 0.00 54 1013.1
20260903011038 32 100 6.4 6.4 0.00 0.00 0.00 54 1013.0
20260903010533 32 86 8.0 11.3 0.00 0.00 0.00 53 1013.0
20260903010032 32 103 6.4 6.4 0.00 0.00 0.00 52 1012.9
20260903005532 32 74 4.8 6.4 0.00 0.00 0.00 51 1012.9
20260903005027 33 115 8.0 12.9 0.00 0.00 0.00 50 1013.0
20260903004526 33 140 9.7 11.3 0.00 0.00 0.00 49 1012.9
20260903004022 33 126 9.7 9.7 0.00 0.00 0.00 48 1012.9
20260903003517 33 83 6.4 9.7 0.00 0.00 0.00 49 1013.1
20260903003013 33 148 1.6 1.6 0.00 0.00 0.00 50 1012.9
20260903002512 33 125 1.6 3.2 0.00 0.00 0.00 50 1013.1
20260903002008 32 124 4.8 6.4 0.00 0.00 0.00 51 1013.0
20260903001502 32 115 6.4 6.4 0.00 0.00 0.00 51 1012.9
20260903001002 33 150 6.4 6.4 0.00 0.00 0.00 51 1013.0
20260903000457 32 182 6.4 12.9 0.00 0.00 0.00 50 1013.0
20260902235955 32 199 3.2 3.2 0.00 0.00 0.00 51 1013.1
20260902235450 32 170 14.5 16.1 0.00 0.00 0.00 51 1013.2
20260902234945 33 153 17.7 22.5 0.00 0.00 0.00 51 1013.0
20260902234440 33 148 9.7 11.3 0.00 0.00 0.00 50 1013.0
20260902233938 35 298 0.0 1.6 0.00 0.00 0.00 45 1013.1
20260902233432 35 331 6.4 6.4 0.00 0.00 0.00 46 1012.9
20260902232932 35 325 0.0 1.6 0.00 0.00 0.00 47 1012.9
20260902232427 35 312 1.6 3.2 0.00 0.00 0.00 47 1013.0
20260902231921 35 0 0.0 0.0 0.00 0.00 0.00 47 1012.7
20260902231416 34 8 0.0 1.6 0.00 0.00 0.00 47 1012.9
20260902230910 34 10 3.2 3.2 0.00 0.00 0.00 47 1012.8
20260902230410 35 13 0.0 0.0 0.00 0.00 0.00 47 1012.6
20260902225904 34 13 0.0 1.6 0.00 0.00 0.00 47 1012.8
20260902225359 35 13 3.2 11.3 0.00 0.00 0.00 45 1012.9
20260902224858 36 18 6.4 11.3 0.00 0.00 0.00 42 1012.6
20260902224358 36 81 0.0 0.0 0.00 0.00 0.00 40 1012.5
20260902223855 37 264 0.0 0.0 0.00 0.00 0.00 39 1012.5
20260902223349 36 340 0.0 0.0 0.00 0.00 0.00 40 1012.5
20260902222844 36 305 0.0 0.0 0.00 0.00 0.00 40 1012.6
20260902222342 36 202 0.0 0.0 0.00 0.00 0.00 40 1012.7
20260902221837 36 196 0.0 0.0 0.00 0.00 0.00 40 1012.5
20260902221336 36 185 4.8 6.4 0.00 0.00 0.00 41 1012.7
20260902220832 36 179 0.0 0.0 0.00 0.00 0.00 41 1012.4
20260902220331 36 169 0.0 0.0 0.00 0.00 0.00 41 1012.6
20260902215826 36 130 4.8 6.4 0.00 0.00 0.00 41 1012.6
20260902215321 36 142 4.8 9.7 0.00 0.00 0.00 41 1012.7
20260902214817 36 164 9.7 11.3 0.00 0.00 0.00 41 1012.8
20260902214316 36 108 6.4 11.3 0.00 0.00 0.00 41 1012.9
20260902213811 36 141 1.6 4.8 0.00 0.00 0.00 41 1012.9
20260902213307 36 221 0.0 1.6 0.00 0.00 0.00 40 1012.9
20260902212805 36 171 3.2 3.2 0.00 0.00 0.00 40 1013.0
20260902212305 36 140 0.0 0.0 0.00 0.00 0.00 40 1012.9
20260902211758 36 14 0.0 0.0 0.00 0.00 0.00 40 1012.9
20260902211254 36 323 0.0 0.0 0.00 0.00 0.00 41 1013.1
20260902210754 36 315 3.2 3.2 0.00 0.00 0.00 40 1013.0
20260902210249 36 316 1.6 3.2 0.00 0.00 0.00 39 1013.0
20260902205747 37 218 0.0 1.6 0.00 0.00 0.00 39 1013.4
20260902205242 37 236 3.2 6.4 0.00 0.00 0.00 40 1013.4
20260902204737 37 176 3.2 3.2 0.00 0.00 0.00 40 1013.4
20260902204232 36 318 1.6 6.4 0.00 0.00 0.00 40 1013.2
20260902203727 37 252 8.0 11.3 0.00 0.00 0.00 40 1013.4
20260902203222 37 120 4.8 6.4 0.00 0.00 0.00 40 1013.6
20260902202716 37 249 6.4 11.3 0.00 0.00 0.00 39 1013.8
20260902202213 37 203 3.2 9.7 0.00 0.00 0.00 39 1013.8
20260902201709 37 260 3.2 4.8 0.00 0.00 0.00 39 1013.7
20260902201208 37 338 9.7 12.9 0.00 0.00 0.00 39 1013.9
20260902200703 37 30 0.0 0.0 0.00 0.00 0.00 40 1014.0
20260902200159 36 71 4.8 6.4 0.00 0.00 0.00 41 1014.0
20260902195649 36 333 9.7 12.9 0.00 0.00 0.00 41 1014.1
20260902195148 36 329 6.4 6.4 0.00 0.00 0.00 42 1014.2
20260902194647 35 342 3.2 3.2 0.00 0.00 0.00 43 1014.4
20260902194142 36 302 3.2 3.2 0.00 0.00 0.00 43 1014.3
20260902193638 36 331 6.4 9.7 0.00 0.00 0.00 42 1014.5
20260902193133 36 322 0.0 0.0 0.00 0.00 0.00 42 1014.4
20260902192631 36 220 0.0 1.6 0.00 0.00 0.00 42 1014.5
20260902192131 36 3 6.4 9.7 0.00 0.00 0.00 41 1014.7
20260902191625 36 312 3.2 4.8 0.00 0.00 0.00 42 1014.8
20260902191120 36 255 0.0 0.0 0.00 0.00 0.00 42 1015.0
20260902190616 35 226 3.2 3.2 0.00 0.00 0.00 43 1014.9
20260902190110 36 231 8.0 9.7 0.00 0.00 0.00 42 1015.1
20260902185606 36 139 4.8 4.8 0.00 0.00 0.00 43 1015.0
20260902185102 36 228 4.8 4.8 0.00 0.00 0.00 42 1015.4
20260902184557 36 177 8.0 9.7 0.00 0.00 0.00 43 1015.3
20260902184052 36 173 1.6 3.2 0.00 0.00 0.00 41 1015.4
20260902183548 36 212 6.4 6.4 0.00 0.00 0.00 40 1015.5
20260902183045 35 291 6.4 9.7 0.00 0.00 0.00 43 1015.6
20260902182540 36 245 4.8 6.4 0.00 0.00 0.00 43 1015.8
20260902182037 35 109 0.0 0.0 0.00 0.00 0.00 44 1015.8
20260902181533 35 99 0.0 0.0 0.00 0.00 0.00 44 1015.9
20260902181026 35 264 6.4 9.7 0.00 0.00 0.00 45 1016.2
20260902180520 35 246 8.0 9.7 0.00 0.00 0.00 44 1016.0
20260902180016 35 147 0.0 3.2 0.00 0.00 0.00 44 1016.1
20260902175510 35 124 0.0 1.6 0.00 0.00 0.00 46 1016.4
20260902175007 35 175 9.7 11.3 0.00 0.00 0.00 44 1016.5
20260902174503 34 330 3.2 3.2 0.00 0.00 0.00 46 1016.5
20260902173958 34 140 6.4 6.4 0.00 0.00 0.00 46 1016.5
20260902173458 35 168 9.7 9.7 0.00 0.00 0.00 46 1016.6
20260902172953 35 222 1.6 3.2 0.00 0.00 0.00 45 1016.8
20260902172452 35 217 6.4 9.7 0.00 0.00 0.00 46 1016.7
20260902171948 35 221 9.7 11.3 0.00 0.00 0.00 45 1016.9
20260902171443 35 241 3.2 3.2 0.00 0.00 0.00 48 1017.0
20260902170939 34 187 11.3 12.9 0.00 0.00 0.00 48 1017.0
20260902170434 34 213 8.0 9.7 0.00 0.00 0.00 48 1017.0
20260902165930 33 272 8.0 9.7 0.00 0.00 0.00 48 1017.1
20260902165428 33 205 4.8 6.4 0.00 0.00 0.00 48 1017.2
20260902164923 33 261 3.2 6.4 0.00 0.00 0.00 48 1017.2
20260902164418 33 179 3.2 4.8 0.00 0.00 0.00 50 1017.4
20260902163917 33 250 6.4 6.4 0.00 0.00 0.00 49 1017.4
20260902163413 33 217 9.7 12.9 0.00 0.00 0.00 49 1017.4
20260902162910 33 173 8.0 11.3 0.00 0.00 0.00 49 1017.6
20260902162406 33 176 6.4 6.4 0.00 0.00 0.00 49 1017.5
20260902161900 33 210 3.2 3.2 0.00 0.00 0.00 49 1017.3
20260902161355 33 220 3.2 4.8 0.00 0.00 0.00 49 1017.6
20260902160851 33 262 3.2 3.2 0.00 0.00 0.00 48 1017.3
20260902160347 33 238 4.8 6.4 0.00 0.00 0.00 50 1017.4
20260902155844 32 179 8.0 9.7 0.00 0.00 0.00 51 1017.3
20260902155343 32 256 6.4 6.4 0.00 0.00 0.00 52 1017.3
20260902154839 32 242 8.0 9.7 0.00 0.00 0.00 52 1017.5
20260902154335 32 265 9.7 11.3 0.00 0.00 0.00 53 1017.5
20260902153833 32 262 4.8 6.4 0.00 0.00 0.00 55 1017.5
20260902153332 31 236 6.4 9.7 0.00 0.00 0.00 56 1017.5
20260902152829 32 252 6.4 6.4 0.00 0.00 0.00 58 1017.6
20260902152325 32 233 4.8 6.4 0.00 0.00 0.00 55 1017.6
20260902151820 31 251 1.6 3.2 0.00 0.00 0.00 58 1017.6
20260902151315 30 262 4.8 9.7 0.00 0.00 0.00 60 1017.6
20260902150809 30 277 9.7 12.9 0.00 0.00 0.00 60 1017.5
20260902150306 30 235 8.0 9.7 0.00 0.00 0.00 62 1017.5
20260902145805 30 227 6.4 9.7 0.00 0.00 0.00 63 1017.4
20260902145301 30 252 4.8 9.7 0.00 0.00 0.00 62 1017.6
20260902144756 30 199 3.2 3.2 0.00 0.00 0.00 63 1017.5
20260902144252 30 247 6.4 9.7 0.00 0.00 0.00 64 1017.6
20260902143746 30 234 8.0 11.3 0.00 0.00 0.00 64 1017.4
20260902143241 30 262 4.8 6.4 0.00 0.00 0.00 64 1017.4
20260902142737 29 253 6.4 12.9 0.00 0.00 0.00 65 1017.5
20260902142232 30 254 8.0 12.9 0.00 0.00 0.00 64 1017.5
20260902141727 29 227 6.4 6.4 0.00 0.00 0.00 66 1017.6
20260902141223 29 205 1.6 3.2 0.00 0.00 0.00 67 1017.5
20260902140718 28 232 1.6 1.6 0.00 0.00 0.00 68 1017.5
20260902140213 28 236 0.0 0.0 0.00 0.00 0.00 69 1017.5
20260902135712 28 238 3.2 3.2 0.00 0.00 0.00 69 1017.3
20260902135208 28 121 6.4 6.4 0.00 0.00 0.00 69 1017.3
20260902134707 28 225 3.2 4.8 0.00 0.00 0.00 69 1017.3
20260902134202 28 238 1.6 3.2 0.00 0.00 0.00 70 1017.2
20260902133657 28 248 3.2 4.8 0.00 0.00 0.00 70 1017.4
20260902133156 27 205 1.6 3.2 0.00 0.00 0.00 71 1017.2
20260902132647 27 255 1.6 3.2 0.00 0.00 0.00 71 1017.2
20260902132142 27 234 3.2 4.8 0.00 0.00 0.00 71 1017.2
20260902131638 27 222 1.6 1.6 0.00 0.00 0.00 72 1017.2
20260902131133 27 201 3.2 3.2 0.00 0.00 0.00 72 1017.2
20260902130629 26 219 3.2 3.2 0.00 0.00 0.00 73 1017.1
20260902130124 26 238 1.6 1.6 0.00 0.00 0.00 75 1017.1
20260902125620 26 198 0.0 0.0 0.00 0.00 0.00 76 1017.0
20260902125115 26 221 0.0 0.0 0.00 0.00 0.00 77 1016.9
20260902124612 25 204 1.6 1.6 0.00 0.00 0.00 78 1016.9
20260902124111 25 199 3.2 3.2 0.00 0.00 0.00 78 1016.8
20260902123607 25 203 0.0 0.0 0.00 0.00 0.00 78 1017.0
20260902123102 25 176 0.0 0.0 0.00 0.00 0.00 78 1016.9
20260902122601 25 167 0.0 0.0 0.00 0.00 0.00 79 1016.7
20260902122057 25 82 0.0 0.0 0.00 0.00 0.00 78 1016.7
20260902121557 25 82 0.0 0.0 0.00 0.00 0.00 78 1016.8
20260902121052 26 82 0.0 0.0 0.00 0.00 0.00 78 1016.6
20260902120548 26 80 0.0 0.0 0.00 0.00 0.00 78 1016.7
20260902120044 26 95 0.0 0.0 0.00 0.00 0.00 77 1016.7
20260902115539 25 197 0.0 0.0 0.00 0.00 0.00 78 1016.8
20260902115035 26 202 0.0 0.0 0.00 0.00 0.00 77 1016.7
20260902114530 26 201 0.0 0.0 0.00 0.00 0.00 77 1016.6
20260902114025 26 198 1.6 3.2 0.00 0.00 0.00 77 1016.6
20260902113520 26 223 0.0 0.0 0.00 0.00 0.00 77 1016.4
20260902113016 26 226 1.6 3.2 0.00 0.00 0.00 77 1016.4
20260902112511 26 247 3.2 4.8 0.00 0.00 0.00 77 1016.3
20260902112008 26 229 1.6 1.6 0.00 0.00 0.00 77 1016.3
20260902111503 26 220 1.6 3.2 0.00 0.00 0.00 77 1016.3
20260902110959 26 248 3.2 3.2 0.00 0.00 0.00 76 1016.4
20260902110455 26 224 4.8 4.8 0.00 0.00 0.00 77 1016.2
20260902105950 26 167 4.8 6.4 0.00 0.00 0.00 77 1016.2
20260902105444 26 181 4.8 4.8 0.00 0.00 0.00 77 1016.2
20260902104939 26 206 3.2 3.2 0.00 0.00 0.00 76 1016.4
20260902104435 26 186 3.2 3.2 0.00 0.00 0.00 76 1016.4
20260902103935 26 206 1.6 1.6 0.00 0.00 0.00 76 1016.3
20260902103430 26 193 4.8 6.4 0.00 0.00 0.00 75 1016.4
20260902102925 26 186 1.6 3.2 0.00 0.00 0.00 75 1016.4
20260902102422 26 205 1.6 3.2 0.00 0.00 0.00 75 1016.5
20260902101918 26 196 3.2 3.2 0.00 0.00 0.00 75 1016.4
20260902101412 26 199 3.2 3.2 0.00 0.00 0.00 75 1016.3
20260902100912 26 213 3.2 3.2 0.00 0.00 0.00 75 1016.2
20260902100406 26 224 1.6 3.2 0.00 0.00 0.00 75 1016.3
20260902095900 26 215 3.2 4.8 0.00 0.00 0.00 75 1016.3
20260902095354 26 192 1.6 3.2 0.00 0.00 0.00 76 1016.5
20260902094849 26 201 4.8 4.8 0.00 0.00 0.00 76 1016.4
20260902094345 26 226 4.8 4.8 0.00 0.00 0.00 76 1016.5
20260902093844 26 230 4.8 4.8 0.00 0.00 0.00 77 1016.4
20260902093340 26 222 0.0 0.0 0.00 0.00 0.00 77 1016.4
20260902092838 26 208 0.0 0.0 0.00 0.00 0.00 78 1016.3